Location: *
(49.0044°N, 9.5056°E)
Time: 06:19:37
(UTC+00:00)

SL-14 R/B - Pass Details

Date: 22 September 2019
Orbit: 517 x 556 km, 82.4° (Epoch: 19 October)

Event Time Altitude Azimuth Distance (km) Brightness Sun altitude
Rises 19:43:42 0° 351° (N) 2,718 7.4 -23.2°
Reaches altitude 10° 19:45:53 10° 352° (N) 1,814 6.4 -23.6°
Enters shadow 19:49:01 53° 6° (N) 668 3.8 -24.0°
